EW2112 Weather Reports


Display with metric or nautical units.
time (UTC)temp
F
wind
direction
speed
MPH
gust
MPH
rain 1hr
in
rain 24hr
in
rain mn
in
humidity
%
barometer
mb
20260504044537 68 355 5.0 11.0 0.00 0.20 0.20 79 1010.4
20260504043041 68 11 5.0 11.0 0.00 0.20 0.20 79 1010.4
20260504041536 68 30 7.0 13.0 0.00 0.20 0.20 78 1010.4
20260504040034 69 29 4.0 14.0 0.00 0.20 0.20 81 1010.8
20260504034529 68 343 5.0 10.0 0.00 0.20 0.20 84 1011.0
20260504033024 66 25 3.0 8.0 0.01 0.20 0.20 90 1011.1
20260504031519 64 23 3.0 10.0 0.03 0.20 0.20 89 1011.3
20260504030025 64 27 2.0 6.0 0.07 0.20 0.20 91 1011.7
20260504024517 64 12 3.0 6.0 0.10 0.20 0.20 91 1012.1
20260504023017 64 26 4.0 6.0 0.10 0.19 0.19 91 1012.4
20260504021516 64 32 1.0 5.0 0.10 0.17 0.17 91 1012.7
20260504020015 64 38 2.0 6.0 0.09 0.13 0.13 91 1013.1
20260504014519 64 11 2.0 6.0 0.08 0.09 0.09 90 1013.3
20260504013030 64 24 1.0 4.0 0.06 0.08 0.08 91 1013.5
20260504011513 64 9 1.0 4.0 0.05 0.06 0.06 90 1013.8
20260504010011 65 28 2.0 4.0 0.02 0.03 0.03 89 1013.9
20260504004510 65 84 0.0 3.0 0.00 0.02 0.02 88 1013.9
20260504003009 65 85 1.0 3.0 0.00 0.02 0.02 88 1013.7
20260504001507 64 86 0.0 2.0 0.02 0.02 0.02 89 1013.6
20260504000005 64 86 1.0 4.0 0.02 0.02 0.02 91 1013.4
20260503234505 63 229 0.0 3.0 0.02 0.02 0.02 91 1013.5
20260503233003 63 275 0.0 1.0 0.02 0.02 0.02 89 1013.6
20260503231600 63 281 0.0 3.0 0.00 0.00 0.00 88 1014.0
20260503230116 63 310 2.0 7.0 0.00 0.00 0.00 85 1014.2
20260503224605 63 296 1.0 8.0 0.00 0.00 0.00 86 1013.8
20260503223056 63 329 2.0 6.0 0.00 0.00 0.00 87 1013.5
20260503221602 63 329 2.0 6.0 0.00 0.00 0.00 88 1013.1
20260503220052 62 348 1.0 4.0 0.00 0.00 0.00 88 1012.9
20260503214555 62 327 2.0 6.0 0.00 0.00 0.00 88 1013.0
20260503213046 62 309 1.0 5.0 0.00 0.00 0.00 89 1012.8
20260503211542 62 360 2.0 8.0 0.00 0.00 0.00 89 1012.7
20260503210041 61 360 1.0 4.0 0.00 0.00 0.00 90 1012.5
20260503204540 61 335 1.0 4.0 0.00 0.00 0.00 91 1012.4
20260503203054 61 20 2.0 5.0 0.00 0.00 0.00 92 1012.4
20260503201538 60 281 0.0 4.0 0.00 0.00 0.00 92 1012.2
20260503200038 60 281 1.0 5.0 0.00 0.00 0.00 93 1012.1
20260503194542 60 335 0.0 3.0 0.00 0.00 0.00 93 1012.0
20260503193039 60 338 0.0 0.0 0.00 0.00 0.00 93 1011.8
20260503191543 60 338 0.0 0.0 0.00 0.00 0.00 94 1011.8
20260503190041 60 338 0.0 0.0 0.00 0.00 0.00 93 1011.9
20260503184534 60 338 0.0 0.0 0.00 0.00 0.00 94 1012.0
20260503183034 59 338 0.0 0.0 0.00 0.00 0.00 93 1012.0
20260503181536 59 338 0.0 0.0 0.00 0.00 0.00 93 1011.9
20260503180035 59 338 0.0 0.0 0.00 0.00 0.00 93 1011.9
20260503174532 59 338 0.0 0.0 0.00 0.00 0.00 93 1011.8
20260503173031 59 338 0.0 0.0 0.00 0.00 0.00 93 1011.8
20260503171528 59 338 0.0 0.0 0.00 0.00 0.00 93 1012.0
20260503100109 69 15 1.0 8.0 0.00 0.00 0.00 79 1014.0
20260503081558 71 72 2.0 7.0 0.00 0.00 0.00 73 1013.7
20260503071552 73 28 1.0 6.0 0.00 0.00 0.00 70 1013.5
20260503060110 78 68 3.0 9.0 0.00 0.00 0.00 52 1013.7
20260503054600 79 38 4.0 10.0 0.00 0.00 0.00 51 1013.8
20260503053045 80 65 3.0 11.0 0.00 0.00 0.00 51 1013.8
20260503051542 80 35 5.0 10.0 0.00 0.00 0.00 50 1014.0
20260503050041 81 32 3.0 9.0 0.00 0.00 0.00 51 1014.1